Regional Weather Roundup
Issued by NWS Midland/Odessa, TX

Skip options and go directly to product.
Home | Oldest Version | Next Version | Current Version | All | Text Only | Save Text | Print | Product List | Glossary On

Skip product version selection by date and time.   
942
ASUS44 KMAF 272001
RWRMAF
MIDLAND AREA WEATHER ROUNDUP
NATIONAL WEATHER SERVICE MIDLAND TX
200 PM CST TUE JAN 27 2015

...IN SOUTHWEST TEXAS AND SOUTHEAST NEW MEXICO...

CITY           SKY/WX    TMP DP  RH WIND       PRES   REMARKS
ALPINE         SUNNY     68  45  43 S5        30.32F
ANDREWS        FAIR      70  30  22 SW3       30.22F
ARTESIA        SUNNY     63  36  36 E3        30.22F
BIG SPRING     SUNNY     74  35  24 CALM      30.23F
CARLSBAD       SUNNY     69  33  26 VRB3      30.20F
DRYDEN           N/A     75  30  19 W7        30.18F
FORT STOCKTON  SUNNY     68  36  30 NW6       30.23F
GUAD PASS      SUNNY     65  28  24 W21       30.30F
HOBBS          SUNNY     68  27  21 S3        30.23F
MARFA          SUNNY     66  45  45 S10       30.30F
MIDLAND AIRPK  SUNNY     71  32  23 SW5       30.22F
MIDLAND INTL   SUNNY     70  34  26 SW6       30.21F
ODESSA         SUNNY     69  32  25 VRB6      30.22F
PECOS          SUNNY     68  34  28 CALM      30.22F
PRESIDIO       FAIR      65  39  39 SW5       30.25F
SEMINOLE       SUNNY     70  32  24 W3        30.23F
SNYDER         SUNNY    N/A N/A N/A S7        30.20F
WINK           SUNNY     70  28  21 W6        30.19F
$$
...OTHER STATIONS IN TEXAS...

CITY           SKY/WX    TMP DP  RH WIND       PRES   REMARKS
ABILENE        SUNNY     76  35  22 E3        30.17F
AMARILLO       MOSUNNY   72  29  20 SW15      30.18F
AUSTIN         MOSUNNY   77  42  28 MISG      30.13F
BROWNSVILLE    SUNNY     78  38  23 S7        30.18F
CORPUS CHRISTI MOSUNNY   79  38  22 W9        30.15F
DALLAS FTW     MOSUNNY   75  38  26 CALM      30.12F
DEL RIO        SUNNY     75  40  28 W5        30.16F
EL PASO        MOSUNNY   64  35  34 VRB3      30.26F
HOUSTON INT    SUNNY     77  42  28 NW6       30.11F
LUBBOCK        MOSUNNY   72  31  22 SW8       30.19F
SAN ANGELO     SUNNY     73  34  23 SW6       30.18F
SAN ANTONIO    MOSUNNY   79  36  21 SW6       30.15F
WACO           SUNNY     75  43  31 S5        30.14F
WICHITA FALLS  NOT AVBL
$$
...OTHER LOCATIONS IN NEW MEXICO...

CITY           SKY/WX    TMP DP  RH WIND       PRES   REMARKS
ALAMAGORDO     SUNNY     63  28  27 SE3       30.27F
ALBUQUERQUE    PTSUNNY   55  28  35 CALM      30.31F
CANNON AFB     MOSUNNY   67  31  26 SW10      30.21F
CLOVIS         SUNNY     66  32  28 SW13      30.21F
HOLLOMAN AFB   SUNNY     63  33  32 S2        30.25F
ROSWELL        SUNNY     64  33  31 VRB5      30.21F
RUIDOSO        SUNNY     57  28  33 NW6       30.34F
SANTA FE       SUNNY     58  25  28 W13       30.30F
TRUTH OR CONSE SUNNY     62  35  36 SE7       30.27F
TUCUMCARI      MOSUNNY   67  26  21 SW14      30.18F
$$

USA.gov is the U.S. government's official web portal to all federal, state and local government web resources and services.